Volver al catálogo

STARLINK-32041

ActivoComunicacionesVLEO
NORAD 60202·PAYLOAD·🇺🇸 United States

Lanzado Jul 3, 2024 desde Cape Canaveral Space Force Station

Loading…

Próximos Pases (próximas 24 horas)

TLE

ActualizadoSource: CelesTrak SupGP

Época: Sep 15, 2026, 02:07 UTC

1 60202C 24124V   26258.08868056 -.00035695  00000+0 -11478-2 0  2587
2 60202  53.1569 161.4212 0001308  89.1200 225.4952 15.31720316    19

Sigue STARLINK-32041 en tiempo real con AllMySat

Download on the App Store